アトラス彗星

427P/ATLAS (2023)

English version
Home page
Updated on October 6, 2021

---------------------------------------------------------------------

・ プロフィール

符号 427P/2021 L6
検出日 2021年6月9日
検出光度 24.0等
検出者 M. Micheli, H. H. Hsieh, S. Margheim, L. Magill (Gemini South telescope at Cerro Pachon, Chile)

・ 軌道要素

Epoch 2023 Apr. 6.0 TT = JDT 2460040.5                                          
T 2023 Mar. 19.32948 TT                                 Rudenko                 
q   2.1704825            (2000.0)            P               Q                  
n   0.17479121     Peri.   99.97810     +0.97103143     +0.13702005             
a   3.1680327      Node   252.35011     -0.19711970     +0.92240090             
e   0.3148800      Incl.   11.85492     +0.13506218     +0.36111230             
P   5.64                                                                        
From 438 observations 2017 July 22-2021 June 13, mean residual 0".6.            

・ 光度変化

        m1 = 10.0 + 5 logΔ + 20.0 log r

---------------------------------------------------------------------

軌道要素はM.P.E.C. 2021-P79に掲載されたものです。
光度グラフはComet for Windowsで作成したものです。

---------------------------------------------------------------------

Copyright(C) Seiichi Yoshida (comet@aerith.net). All rights reserved.